Showing default

JILIN-01-04, 43022

Orbit data source: Space-Track

JILIN-01-04, 43022 is a payload satellite owned by Changguang WJ (CN) in SSO that was launched on Tue, 21 Nov 2017 UTC via a CHANG ZHENG 6 launch vehicle from the Taiyaun Space Center, China (TSC). Payloads include a variety of satellites, spacecraft, and rockets equipped with specific instruments for various scientific and technological missions. These include communications satellites like Starlink; space stations such as the ISS; scientific satellites like the Hubble; Earth observation satellites from companies like Planet Labs, Umbra, and HawkEye 360; GPS; miniature CubeSats for education and research; and military/defense satellites.

Loading next visibility...
JILIN-01-04 details
Identifier
43022, 2017-074A
Orbit
SSO
Last TLE update4 hours ago
Origin
Flag of CNChangguang WJ (CN / PRC)
ManufacturerHARB/CIOMP
MissionOperational Commercial Imaging
Bus & MotorJL-1, Unknown motor
Mass95 kg wet, 95 kg dry
Launch date (UTC)
2017-11-21 (7 years ago)
Launch vehicle
CHANG ZHENG 6
Launch site
Taiyaun Space Center, China (TSC)
Object type
Payload
Rocket body
Debris
Shape & HBRBox + 2 Pan, 1.5 m
Radar Cross Section2.000 m², Medium (>0.1 m² and < 1m²)

Expand to show TLE details & history

TLE from 4 hours ago
0 JILIN-01-04
1 43022U 17074A   24361.53749207  .00016994  00000-0  64682-3 0  9991
2 43022  97.4828  92.7806 0004850 325.0669  35.0251 15.26807549391816
Epoch: 2024-12-26T12:53Z
Definitive object data (Epoch: 2024-12-26T12:53:59.314Z)
Latitude-0.00002°
Longitude163.768°
Altitude485.734 km
Speed7.624 km/s
True Right ascension06h 11m 07s
True Declination0° 00' 00"
Sunlit
Object was in full shadow at TLE epoch
Visualization TLE readout
Latitude-38.01062°
Longitude-21.92058°
Altitude500.833 km
Speed7.612 km/s
Apparent Right ascension22h 05m 08s
Apparent Declination-76° 26' 19"
Sunlit
Object is in daylight
Visualization observer readout
Local Sidereal Time16:22:10
Azimuth162.829° S
Elevation-37.62°
Doppler factor1
Orbital elements
Apogee altitude485.65 km
Perigee altitude478.996 km
Semi-major axis6,860.46 km
Eccentricity0.000485
Inclination97.4828°
RAAN92.7806°
Arg. of periapsis325.0669°
True anomaly35.05701°
Mean anomaly35.0251°
Eccentric anomaly35.04106°
Mean motion3.81956 °/min
BSTAR0.00064682
Orbital period94.25 mins
Loading maneuver chart data...
Loading historical data...
Loading historical data...
Loading historical data...
Loading historical data...
Loading historical data...
Loading historical data...
Loading historical data...
Other satellites on launch #74 in the year 2017 (2017-11-21 UTC)

JILIN-01-04 Visibility forecast

Observer location: undefined°, undefined

Span
Click to sort rows by Start time (UTC) header in descending order
Start Az.
Max El. time (UTC)
Max El. Az.
Max El.
End time (UTC)
End Az.
4 mins2024-12-26 19:45:54.486Z335.162° NNW2024-12-26 19:47:54.486Z278.455° WNW27.227°2024-12-26 19:49:54.486Z233.134° WSW
5 mins2024-12-27 06:20:54.486Z164.079° S2024-12-27 06:22:54.486Z6.129° NNE44.12°2024-12-27 06:25:54.486Z349.195° N
|